Year,Month,Day,Hour,Minute,Value (Times are PST for temperature in C)
2018,02,26,00,00,0.90
2018,02,26,00,01,0.90
2018,02,26,00,02,0.90
2018,02,26,00,03,0.90
2018,02,26,00,04,0.90
2018,02,26,00,05,0.90
2018,02,26,00,06,0.90
2018,02,26,00,07,0.90
2018,02,26,00,08,1.00
2018,02,26,00,09,1.00
2018,02,26,00,10,1.00
2018,02,26,00,11,1.00
2018,02,26,00,12,1.10
2018,02,26,00,13,1.10
2018,02,26,00,14,1.10
2018,02,26,00,15,1.10
2018,02,26,00,16,1.20
2018,02,26,00,17,1.20
2018,02,26,00,18,1.20
2018,02,26,00,19,1.20
2018,02,26,00,20,1.10
2018,02,26,00,21,1.10
2018,02,26,00,22,1.10
2018,02,26,00,23,1.10
2018,02,26,00,24,1.10
2018,02,26,00,25,1.00
2018,02,26,00,26,1.00
2018,02,26,00,27,1.00
2018,02,26,00,28,1.00
2018,02,26,00,29,1.00
2018,02,26,00,30,1.00
2018,02,26,00,31,1.00
2018,02,26,00,32,1.00
2018,02,26,00,33,1.00
2018,02,26,00,34,1.00
2018,02,26,00,35,1.00
2018,02,26,00,36,1.00
2018,02,26,00,37,1.00
2018,02,26,00,38,1.00
2018,02,26,00,39,1.00
2018,02,26,00,40,1.00
2018,02,26,00,41,0.90
2018,02,26,00,42,0.90
2018,02,26,00,43,1.00
2018,02,26,00,44,1.00
2018,02,26,00,45,1.10
2018,02,26,00,46,1.10
2018,02,26,00,47,1.10
2018,02,26,00,48,1.20
2018,02,26,00,49,1.20
2018,02,26,00,50,1.20
2018,02,26,00,51,1.20
2018,02,26,00,52,1.20
2018,02,26,00,53,1.20
2018,02,26,00,54,1.20
2018,02,26,00,55,1.20
2018,02,26,00,56,1.20
2018,02,26,00,57,1.20
2018,02,26,00,58,1.20
2018,02,26,00,59,1.20
2018,02,26,01,00,1.20
2018,02,26,01,01,1.20
2018,02,26,01,02,1.20
2018,02,26,01,03,1.20
2018,02,26,01,04,1.10
2018,02,26,01,05,1.10
2018,02,26,01,06,1.10
2018,02,26,01,07,1.10
2018,02,26,01,08,1.20
2018,02,26,01,09,1.20
2018,02,26,01,10,1.20
2018,02,26,01,11,1.20
2018,02,26,01,12,1.20
2018,02,26,01,13,1.20
2018,02,26,01,14,1.20
2018,02,26,01,15,1.20
2018,02,26,01,16,1.10
2018,02,26,01,17,1.10
2018,02,26,01,18,1.10
2018,02,26,01,19,1.10
2018,02,26,01,20,1.10
2018,02,26,01,21,1.10
2018,02,26,01,22,1.10
2018,02,26,01,23,1.00
2018,02,26,01,24,1.00
2018,02,26,01,25,1.00
2018,02,26,01,26,1.00
2018,02,26,01,27,1.00
2018,02,26,01,28,1.00
2018,02,26,01,29,1.00
2018,02,26,01,30,1.00
2018,02,26,01,31,1.00
2018,02,26,01,32,1.00
2018,02,26,01,33,1.10
2018,02,26,01,34,1.10
2018,02,26,01,35,1.10
2018,02,26,01,36,1.10
2018,02,26,01,37,1.10
2018,02,26,01,38,1.10
2018,02,26,01,39,1.10
2018,02,26,01,40,1.10
2018,02,26,01,41,1.10
2018,02,26,01,42,1.10
2018,02,26,01,43,1.00
2018,02,26,01,44,1.00
2018,02,26,01,45,1.00
2018,02,26,01,46,0.90
2018,02,26,01,47,1.00
2018,02,26,01,48,1.00
2018,02,26,01,49,1.00
2018,02,26,01,50,1.00
2018,02,26,01,51,0.90
2018,02,26,01,52,0.90
2018,02,26,01,53,0.90
2018,02,26,01,54,0.80
2018,02,26,01,55,0.80
2018,02,26,01,56,0.80
2018,02,26,01,57,0.80
2018,02,26,01,58,0.80
2018,02,26,01,59,0.80
2018,02,26,02,00,0.90
2018,02,26,02,01,0.90
2018,02,26,02,02,0.90
2018,02,26,02,03,0.90
2018,02,26,02,04,0.90
2018,02,26,02,05,0.90
2018,02,26,02,06,0.90
2018,02,26,02,07,0.90
2018,02,26,02,08,0.90
2018,02,26,02,09,0.90
2018,02,26,02,10,0.90
2018,02,26,02,11,0.90
2018,02,26,02,12,0.90
2018,02,26,02,13,1.00
2018,02,26,02,14,1.00
2018,02,26,02,15,1.00
2018,02,26,02,16,1.00
2018,02,26,02,17,1.00
2018,02,26,02,18,1.00
2018,02,26,02,19,1.00
2018,02,26,02,20,1.00
2018,02,26,02,21,1.00
2018,02,26,02,22,1.10
2018,02,26,02,23,1.10
2018,02,26,02,24,1.10
2018,02,26,02,25,1.20
2018,02,26,02,26,1.20
2018,02,26,02,27,1.20
2018,02,26,02,28,1.20
2018,02,26,02,29,1.20
2018,02,26,02,30,1.20
2018,02,26,02,31,1.20
2018,02,26,02,32,1.20
2018,02,26,02,33,1.20
2018,02,26,02,34,1.10
2018,02,26,02,35,1.10
2018,02,26,02,36,1.10
2018,02,26,02,37,1.00
2018,02,26,02,38,1.00
2018,02,26,02,39,1.00
2018,02,26,02,40,1.00
2018,02,26,02,41,1.00
2018,02,26,02,42,1.00
2018,02,26,02,43,1.00
2018,02,26,02,44,1.00
2018,02,26,02,45,1.00
2018,02,26,02,46,1.00
2018,02,26,02,47,1.00
2018,02,26,02,48,1.00
2018,02,26,02,49,1.00
2018,02,26,02,50,1.00
2018,02,26,02,51,1.00
2018,02,26,02,52,1.00
2018,02,26,02,53,1.00
2018,02,26,02,54,1.00
2018,02,26,02,55,1.00
2018,02,26,02,56,0.90
2018,02,26,02,57,0.90
2018,02,26,02,58,0.90
2018,02,26,02,59,0.90
2018,02,26,03,00,0.90
2018,02,26,03,01,0.90
2018,02,26,03,02,0.90
2018,02,26,03,03,1.00
2018,02,26,03,04,1.00
2018,02,26,03,05,1.00
2018,02,26,03,06,1.00
2018,02,26,03,07,1.00
2018,02,26,03,08,1.00
2018,02,26,03,09,1.00
2018,02,26,03,10,1.00
2018,02,26,03,11,1.00
2018,02,26,03,12,1.10
2018,02,26,03,13,1.10
2018,02,26,03,14,1.10
2018,02,26,03,15,1.10
2018,02,26,03,16,1.10
2018,02,26,03,17,1.10
2018,02,26,03,18,1.10
2018,02,26,03,19,1.10
2018,02,26,03,20,1.10
2018,02,26,03,21,1.10
2018,02,26,03,22,1.10
2018,02,26,03,23,1.10
2018,02,26,03,24,1.10
2018,02,26,03,25,1.10
2018,02,26,03,26,1.20
2018,02,26,03,27,1.20
2018,02,26,03,28,1.20
2018,02,26,03,29,1.20
2018,02,26,03,30,1.10
2018,02,26,03,31,1.10
2018,02,26,03,32,1.10
2018,02,26,03,33,1.10
2018,02,26,03,34,1.00
2018,02,26,03,35,1.00
2018,02,26,03,36,1.00
2018,02,26,03,37,0.90
2018,02,26,03,38,0.90
2018,02,26,03,39,0.90
2018,02,26,03,40,0.80
2018,02,26,03,41,0.80
2018,02,26,03,42,0.80
2018,02,26,03,43,0.70
2018,02,26,03,44,0.70
2018,02,26,03,45,0.70
2018,02,26,03,46,0.70
2018,02,26,03,47,0.70
2018,02,26,03,48,0.70
2018,02,26,03,49,0.70
2018,02,26,03,50,0.70
2018,02,26,03,51,0.80
2018,02,26,03,52,0.80
2018,02,26,03,53,0.80
2018,02,26,03,54,0.80
2018,02,26,03,55,0.80
2018,02,26,03,56,0.80
2018,02,26,03,57,0.80
2018,02,26,03,58,0.80
2018,02,26,03,59,0.80
2018,02,26,04,00,0.80
2018,02,26,04,01,0.80
2018,02,26,04,02,0.80
2018,02,26,04,03,0.80
2018,02,26,04,04,0.80
2018,02,26,04,05,0.80
2018,02,26,04,06,0.80
2018,02,26,04,07,0.90
2018,02,26,04,08,0.90
2018,02,26,04,09,0.80
2018,02,26,04,10,0.80
2018,02,26,04,11,0.80
2018,02,26,04,12,0.80
2018,02,26,04,13,0.80
2018,02,26,04,14,0.80
2018,02,26,04,15,0.80
2018,02,26,04,16,0.80
2018,02,26,04,17,0.80
2018,02,26,04,18,0.80
2018,02,26,04,19,0.80
2018,02,26,04,20,0.80
2018,02,26,04,21,0.80
2018,02,26,04,22,0.80
2018,02,26,04,23,0.80
2018,02,26,04,24,0.80
2018,02,26,04,25,0.80
2018,02,26,04,26,0.80
2018,02,26,04,27,0.80
2018,02,26,04,28,0.80
2018,02,26,04,29,0.80
2018,02,26,04,30,0.80
2018,02,26,04,31,0.80
2018,02,26,04,32,0.80
2018,02,26,04,33,0.80
2018,02,26,04,34,0.80
2018,02,26,04,35,0.90
2018,02,26,04,36,0.90
2018,02,26,04,37,0.90
2018,02,26,04,38,0.80
2018,02,26,04,39,0.80
2018,02,26,04,40,0.80
2018,02,26,04,41,0.80
2018,02,26,04,42,0.80
2018,02,26,04,43,0.80
2018,02,26,04,44,0.80
2018,02,26,04,45,0.90
2018,02,26,04,46,0.90
2018,02,26,04,47,0.90
2018,02,26,04,48,0.90
2018,02,26,04,49,0.80
2018,02,26,04,50,0.80
2018,02,26,04,51,0.80
2018,02,26,04,52,0.80
2018,02,26,04,53,0.80
2018,02,26,04,54,0.80
2018,02,26,04,55,0.80
2018,02,26,04,56,0.80
2018,02,26,04,57,0.80
2018,02,26,04,58,0.80
2018,02,26,04,59,0.80
2018,02,26,05,00,0.70
2018,02,26,05,01,0.70
2018,02,26,05,02,0.70
2018,02,26,05,03,0.70
2018,02,26,05,04,0.70
2018,02,26,05,05,0.70
2018,02,26,05,06,0.70
2018,02,26,05,07,0.70
2018,02,26,05,08,0.70
2018,02,26,05,09,0.70
2018,02,26,05,10,0.70
2018,02,26,05,11,0.70
2018,02,26,05,12,0.70
2018,02,26,05,13,0.70
2018,02,26,05,14,0.70
2018,02,26,05,15,0.70
2018,02,26,05,16,0.70
2018,02,26,05,17,0.70
2018,02,26,05,18,0.70
2018,02,26,05,19,0.70
2018,02,26,05,20,0.60
2018,02,26,05,21,0.70
2018,02,26,05,22,0.70
2018,02,26,05,23,0.70
2018,02,26,05,24,0.70
2018,02,26,05,25,0.80
2018,02,26,05,26,0.80
2018,02,26,05,27,0.80
2018,02,26,05,28,0.80
2018,02,26,05,29,0.80
2018,02,26,05,30,0.80
2018,02,26,05,31,0.80
2018,02,26,05,32,0.70
2018,02,26,05,33,0.70
2018,02,26,05,34,0.70
2018,02,26,05,35,0.70
2018,02,26,05,36,0.70
2018,02,26,05,37,0.70
2018,02,26,05,38,0.60
2018,02,26,05,39,0.60
2018,02,26,05,40,0.60
2018,02,26,05,41,0.60
2018,02,26,05,42,0.60
2018,02,26,05,43,0.50
2018,02,26,05,44,0.50
2018,02,26,05,45,0.50
2018,02,26,05,46,0.50
2018,02,26,05,47,0.50
2018,02,26,05,48,0.50
2018,02,26,05,49,0.50
2018,02,26,05,50,0.50
2018,02,26,05,51,0.50
2018,02,26,05,52,0.50
2018,02,26,05,53,0.50
2018,02,26,05,54,0.50
2018,02,26,05,55,0.50
2018,02,26,05,56,0.50
2018,02,26,05,57,0.50
2018,02,26,05,58,0.50
2018,02,26,05,59,0.40
2018,02,26,06,00,0.40
2018,02,26,06,01,0.40
2018,02,26,06,02,0.40
2018,02,26,06,03,0.50
2018,02,26,06,04,0.40
2018,02,26,06,05,0.50
2018,02,26,06,06,0.50
2018,02,26,06,07,0.50
2018,02,26,06,08,0.50
2018,02,26,06,09,0.50
2018,02,26,06,10,0.50
2018,02,26,06,11,0.50
2018,02,26,06,12,0.50
2018,02,26,06,13,0.50
2018,02,26,06,14,0.50
2018,02,26,06,15,0.50
2018,02,26,06,16,0.50
2018,02,26,06,17,0.50
2018,02,26,06,18,0.60
2018,02,26,06,19,0.60
2018,02,26,06,20,0.60
2018,02,26,06,21,0.60
2018,02,26,06,22,0.60
2018,02,26,06,23,0.60
2018,02,26,06,24,0.70
2018,02,26,06,25,0.70
2018,02,26,06,26,0.70
2018,02,26,06,27,0.80
2018,02,26,06,28,0.80
2018,02,26,06,29,0.80
2018,02,26,06,30,0.80
2018,02,26,06,31,0.80
2018,02,26,06,32,0.80
2018,02,26,06,33,0.90
2018,02,26,06,34,0.90
2018,02,26,06,35,0.90
2018,02,26,06,36,1.00
2018,02,26,06,37,1.00
2018,02,26,06,38,1.00
2018,02,26,06,39,1.00
2018,02,26,06,40,1.00
2018,02,26,06,41,1.00
2018,02,26,06,42,1.00
2018,02,26,06,43,1.00
2018,02,26,06,44,1.00
2018,02,26,06,45,1.00
2018,02,26,06,46,1.00
2018,02,26,06,47,1.00
2018,02,26,06,48,1.00
2018,02,26,06,49,1.00
2018,02,26,06,50,0.90
2018,02,26,06,51,0.90
2018,02,26,06,52,0.90
2018,02,26,06,53,1.00
2018,02,26,06,54,1.10
2018,02,26,06,55,1.20
2018,02,26,06,56,1.30
2018,02,26,06,57,1.30
2018,02,26,06,58,1.30
2018,02,26,06,59,1.30
2018,02,26,07,00,1.30
2018,02,26,07,01,1.40
2018,02,26,07,02,1.40
2018,02,26,07,03,1.40
2018,02,26,07,04,1.40
2018,02,26,07,05,1.40
2018,02,26,07,06,1.40
2018,02,26,07,07,1.30
2018,02,26,07,08,1.40
2018,02,26,07,09,1.40
2018,02,26,07,10,1.40
2018,02,26,07,11,1.40
2018,02,26,07,12,1.40
2018,02,26,07,13,1.40
2018,02,26,07,14,1.40
2018,02,26,07,15,1.40
2018,02,26,07,16,1.50
2018,02,26,07,17,1.50
2018,02,26,07,18,1.50
2018,02,26,07,19,1.50
2018,02,26,07,20,1.50
2018,02,26,07,21,1.60
2018,02,26,07,22,1.60
2018,02,26,07,23,1.60
2018,02,26,07,24,1.60
2018,02,26,07,25,1.70
2018,02,26,07,26,1.70
2018,02,26,07,27,1.70
2018,02,26,07,28,1.80
2018,02,26,07,29,1.80
2018,02,26,07,30,1.80
2018,02,26,07,31,1.80
2018,02,26,07,32,1.80
2018,02,26,07,33,1.90
2018,02,26,07,34,1.90
2018,02,26,07,35,1.90
2018,02,26,07,36,1.90
2018,02,26,07,37,1.90
2018,02,26,07,38,1.90
2018,02,26,07,39,1.90
2018,02,26,07,40,1.90
2018,02,26,07,41,1.90
2018,02,26,07,42,1.90
2018,02,26,07,43,1.90
2018,02,26,07,44,1.90
2018,02,26,07,45,1.90
2018,02,26,07,46,1.90
2018,02,26,07,47,1.90
2018,02,26,07,48,1.90
2018,02,26,07,49,1.90
2018,02,26,07,50,1.90
2018,02,26,07,51,1.90
2018,02,26,07,52,2.00
2018,02,26,07,53,2.00
2018,02,26,07,54,2.10
2018,02,26,07,55,2.20
2018,02,26,07,56,2.20
2018,02,26,07,57,2.20
2018,02,26,07,58,2.20
2018,02,26,07,59,2.20
2018,02,26,08,00,2.20
2018,02,26,08,01,2.20
2018,02,26,08,02,2.30
2018,02,26,08,03,2.30
2018,02,26,08,04,2.30
2018,02,26,08,05,2.30
2018,02,26,08,06,2.30
2018,02,26,08,07,2.30
2018,02,26,08,08,2.40
2018,02,26,08,09,2.40
2018,02,26,08,10,2.40
2018,02,26,08,11,2.40
2018,02,26,08,12,2.40
2018,02,26,08,13,2.50
2018,02,26,08,14,2.50
2018,02,26,08,15,2.50
2018,02,26,08,16,2.60
2018,02,26,08,17,2.60
2018,02,26,08,18,2.60
2018,02,26,08,19,2.60
2018,02,26,08,20,2.60
2018,02,26,08,21,2.60
2018,02,26,08,22,2.60
2018,02,26,08,23,2.60
2018,02,26,08,24,2.60
2018,02,26,08,25,2.70
2018,02,26,08,26,2.70
2018,02,26,08,27,2.70
2018,02,26,08,28,2.70
2018,02,26,08,29,2.70
2018,02,26,08,30,2.80
2018,02,26,08,31,2.80
2018,02,26,08,32,2.80
2018,02,26,08,33,2.80
2018,02,26,08,34,2.80
2018,02,26,08,35,2.80
2018,02,26,08,36,2.90
2018,02,26,08,37,2.90
2018,02,26,08,38,2.90
2018,02,26,08,39,2.90
2018,02,26,08,40,2.90
2018,02,26,08,41,2.90
2018,02,26,08,42,3.00
2018,02,26,08,43,3.00
2018,02,26,08,44,3.00
2018,02,26,08,45,3.00
2018,02,26,08,46,3.00
2018,02,26,08,47,3.10
2018,02,26,08,48,3.10
2018,02,26,08,49,3.10
2018,02,26,08,50,3.10
2018,02,26,08,51,3.10
2018,02,26,08,52,3.20
2018,02,26,08,53,3.20
2018,02,26,08,54,3.20
2018,02,26,08,55,3.20
2018,02,26,08,56,3.20
2018,02,26,08,57,3.20
2018,02,26,08,58,3.20
2018,02,26,08,59,3.30
2018,02,26,09,00,3.30
2018,02,26,09,01,3.30
2018,02,26,09,02,3.30
2018,02,26,09,03,3.30
2018,02,26,09,04,3.30
2018,02,26,09,05,3.30
2018,02,26,09,06,3.30
2018,02,26,09,07,3.30
2018,02,26,09,08,3.40
2018,02,26,09,09,3.40
2018,02,26,09,10,3.40
2018,02,26,09,11,3.40
2018,02,26,09,12,3.40
2018,02,26,09,13,3.40
2018,02,26,09,14,3.40
2018,02,26,09,15,3.50
2018,02,26,09,16,3.50
2018,02,26,09,17,3.50
2018,02,26,09,18,3.60
2018,02,26,09,19,3.60
2018,02,26,09,20,3.60
2018,02,26,09,21,3.60
2018,02,26,09,22,3.60
2018,02,26,09,23,3.70
2018,02,26,09,24,3.70
2018,02,26,09,25,3.70
2018,02,26,09,26,3.70
2018,02,26,09,27,3.70
2018,02,26,09,28,3.70
2018,02,26,09,29,3.70
2018,02,26,09,30,3.80
2018,02,26,09,31,3.80
2018,02,26,09,32,3.80
2018,02,26,09,33,3.80
2018,02,26,09,34,3.80
2018,02,26,09,35,3.80
2018,02,26,09,36,3.80
2018,02,26,09,37,3.80
2018,02,26,09,38,3.80
2018,02,26,09,39,3.80
2018,02,26,09,40,3.80
2018,02,26,09,41,3.80
2018,02,26,09,42,3.90
2018,02,26,09,43,3.90
2018,02,26,09,44,3.90
2018,02,26,09,45,3.90
2018,02,26,09,46,4.00
2018,02,26,09,47,4.00
2018,02,26,09,48,4.00
2018,02,26,09,49,4.10
2018,02,26,09,50,4.10
2018,02,26,09,51,4.20
2018,02,26,09,52,4.20
2018,02,26,09,53,4.20
2018,02,26,09,54,4.20
2018,02,26,09,55,4.20
2018,02,26,09,56,4.20
2018,02,26,09,57,4.20
2018,02,26,09,58,4.30
2018,02,26,09,59,4.30
2018,02,26,10,00,4.30
2018,02,26,10,01,4.30
2018,02,26,10,02,4.30
2018,02,26,10,03,4.30
2018,02,26,10,04,4.30
2018,02,26,10,05,4.30
2018,02,26,10,06,4.30
2018,02,26,10,07,4.30
2018,02,26,10,08,4.40
2018,02,26,10,09,4.40
2018,02,26,10,10,4.40
2018,02,26,10,11,4.40
2018,02,26,10,12,4.40
2018,02,26,10,13,4.40
2018,02,26,10,14,4.40
2018,02,26,10,15,4.40
2018,02,26,10,16,4.40
2018,02,26,10,17,4.40
2018,02,26,10,18,4.40
2018,02,26,10,19,4.50
2018,02,26,10,20,4.50
2018,02,26,10,21,4.50
2018,02,26,10,22,4.50
2018,02,26,10,23,4.50
2018,02,26,10,24,4.50
2018,02,26,10,25,4.50
2018,02,26,10,26,4.50
2018,02,26,10,27,4.50
2018,02,26,10,28,4.40
2018,02,26,10,29,4.40
2018,02,26,10,30,4.40
2018,02,26,10,31,4.50
2018,02,26,10,32,4.50
2018,02,26,10,33,4.50
2018,02,26,10,34,4.60
2018,02,26,10,35,4.60
2018,02,26,10,36,4.70
2018,02,26,10,37,4.70
2018,02,26,10,38,4.70
2018,02,26,10,39,4.70
2018,02,26,10,40,4.70
2018,02,26,10,41,4.70
2018,02,26,10,42,4.70
2018,02,26,10,43,4.70
2018,02,26,10,44,4.80
2018,02,26,10,45,4.80
2018,02,26,10,46,4.80
2018,02,26,10,47,4.90
2018,02,26,10,48,4.90
2018,02,26,10,49,5.00
2018,02,26,10,50,5.10
2018,02,26,10,51,5.10
2018,02,26,10,52,5.20
2018,02,26,10,53,5.30
2018,02,26,10,54,5.30
2018,02,26,10,55,5.40
2018,02,26,10,56,5.50
2018,02,26,10,57,5.60
2018,02,26,10,58,5.70
2018,02,26,10,59,5.80
2018,02,26,11,00,6.00
2018,02,26,11,01,6.00
2018,02,26,11,02,6.10
2018,02,26,11,03,6.10
2018,02,26,11,04,6.20
2018,02,26,11,05,6.20
2018,02,26,11,06,6.20
2018,02,26,11,07,6.30
2018,02,26,11,08,6.20
2018,02,26,11,09,6.20
2018,02,26,11,10,6.20
2018,02,26,11,11,6.20
2018,02,26,11,12,6.10
2018,02,26,11,13,6.00
2018,02,26,11,14,6.00
2018,02,26,11,15,6.00
2018,02,26,11,16,6.00
2018,02,26,11,17,5.90
2018,02,26,11,18,5.90
2018,02,26,11,19,5.80
2018,02,26,11,20,5.80
2018,02,26,11,21,5.80
2018,02,26,11,22,5.80
2018,02,26,11,23,5.90
2018,02,26,11,24,5.90
2018,02,26,11,25,5.90
2018,02,26,11,26,5.90
2018,02,26,11,27,5.90
2018,02,26,11,28,5.90
2018,02,26,11,29,5.90
2018,02,26,11,30,5.90
2018,02,26,11,31,5.90
2018,02,26,11,32,5.90
2018,02,26,11,33,5.90
2018,02,26,11,34,5.90
2018,02,26,11,35,5.90
2018,02,26,11,36,5.90
2018,02,26,11,37,5.90
2018,02,26,11,38,5.90
2018,02,26,11,39,6.00
2018,02,26,11,40,6.00
2018,02,26,11,41,6.10
2018,02,26,11,42,6.20
2018,02,26,11,43,6.30
2018,02,26,11,44,6.40
2018,02,26,11,45,6.50
2018,02,26,11,46,6.50
2018,02,26,11,47,6.60
2018,02,26,11,48,6.60
2018,02,26,11,49,6.70
2018,02,26,11,50,6.70
2018,02,26,11,51,6.80
2018,02,26,11,52,6.80
2018,02,26,11,53,6.80
2018,02,26,11,54,6.80
2018,02,26,11,55,6.80
2018,02,26,11,56,6.80
2018,02,26,11,57,6.80
2018,02,26,11,58,6.80
2018,02,26,11,59,6.80
2018,02,26,12,00,6.70
2018,02,26,12,01,6.70
2018,02,26,12,02,6.70
2018,02,26,12,03,6.60
2018,02,26,12,04,6.50
2018,02,26,12,05,6.40
2018,02,26,12,06,6.30
2018,02,26,12,07,6.30
2018,02,26,12,08,6.30
2018,02,26,12,09,6.30
2018,02,26,12,10,6.20
2018,02,26,12,11,6.20
2018,02,26,12,12,6.10
2018,02,26,12,13,6.10
2018,02,26,12,14,6.20
2018,02,26,12,15,6.30
2018,02,26,12,16,6.30
2018,02,26,12,17,6.30
2018,02,26,12,18,6.30
2018,02,26,12,19,6.40
2018,02,26,12,20,6.50
2018,02,26,12,21,6.50
2018,02,26,12,22,6.50
2018,02,26,12,23,6.60
2018,02,26,12,24,6.70
2018,02,26,12,25,6.70
2018,02,26,12,26,6.70
2018,02,26,12,27,6.70
2018,02,26,12,28,6.70
2018,02,26,12,29,6.80
2018,02,26,12,30,6.80
2018,02,26,12,31,6.80
2018,02,26,12,32,6.70
2018,02,26,12,33,6.60
2018,02,26,12,34,6.60
2018,02,26,12,35,6.50
2018,02,26,12,36,6.50
2018,02,26,12,37,6.40
2018,02,26,12,38,6.40
2018,02,26,12,39,6.40
2018,02,26,12,40,6.30
2018,02,26,12,41,6.40
2018,02,26,12,42,6.40
2018,02,26,12,43,6.40
2018,02,26,12,44,6.40
2018,02,26,12,45,6.40
2018,02,26,12,46,6.40
2018,02,26,12,47,6.30
2018,02,26,12,48,6.30
2018,02,26,12,49,6.20
2018,02,26,12,50,6.10
2018,02,26,12,51,6.00
2018,02,26,12,52,5.90
2018,02,26,12,53,6.00
2018,02,26,12,54,6.00
2018,02,26,12,55,6.00
2018,02,26,12,56,6.00
2018,02,26,12,57,6.00
2018,02,26,12,58,5.90
2018,02,26,12,59,5.90
2018,02,26,13,00,5.90
2018,02,26,13,01,5.90
2018,02,26,13,02,5.80
2018,02,26,13,03,5.70
2018,02,26,13,04,5.50
2018,02,26,13,05,5.50
2018,02,26,13,06,5.40
2018,02,26,13,07,5.50
2018,02,26,13,08,5.50
2018,02,26,13,09,5.50
2018,02,26,13,10,5.50
2018,02,26,13,11,5.50
2018,02,26,13,12,5.50
2018,02,26,13,13,5.60
2018,02,26,13,14,5.60
2018,02,26,13,15,5.60
2018,02,26,13,16,5.50
2018,02,26,13,17,5.40
2018,02,26,13,18,5.40
2018,02,26,13,19,5.40
2018,02,26,13,20,5.40
2018,02,26,13,21,5.40
2018,02,26,13,22,5.50
2018,02,26,13,23,5.60
2018,02,26,13,24,5.80
2018,02,26,13,25,5.90
2018,02,26,13,26,6.00
2018,02,26,13,27,6.00
2018,02,26,13,28,6.10
2018,02,26,13,29,6.20
2018,02,26,13,30,6.20
2018,02,26,13,31,6.20
2018,02,26,13,32,6.30
2018,02,26,13,33,6.30
2018,02,26,13,34,6.40
2018,02,26,13,35,6.40
2018,02,26,13,36,6.30
2018,02,26,13,37,6.30
2018,02,26,13,38,6.30
2018,02,26,13,39,6.30
2018,02,26,13,40,6.40
2018,02,26,13,41,6.40
2018,02,26,13,42,6.50
2018,02,26,13,43,6.40
2018,02,26,13,44,6.40
2018,02,26,13,45,6.40
2018,02,26,13,46,6.30
2018,02,26,13,47,6.30
2018,02,26,13,48,6.20
2018,02,26,13,49,6.10
2018,02,26,13,50,6.00
2018,02,26,13,51,5.90
2018,02,26,13,52,5.90
2018,02,26,13,53,5.90
2018,02,26,13,54,5.90
2018,02,26,13,55,5.90
2018,02,26,13,56,5.90
2018,02,26,13,57,5.90
2018,02,26,13,58,6.00
2018,02,26,13,59,6.20
2018,02,26,14,00,6.20
2018,02,26,14,01,6.20
2018,02,26,14,02,6.30
2018,02,26,14,03,6.40
2018,02,26,14,04,6.40
2018,02,26,14,05,6.40
2018,02,26,14,06,6.50
2018,02,26,14,07,6.50
2018,02,26,14,08,6.60
2018,02,26,14,09,6.60
2018,02,26,14,10,6.50
2018,02,26,14,11,6.50
2018,02,26,14,12,6.60
2018,02,26,14,13,6.60
2018,02,26,14,14,6.60
2018,02,26,14,15,6.60
2018,02,26,14,16,6.60
2018,02,26,14,17,6.50
2018,02,26,14,18,6.40
2018,02,26,14,19,6.40
2018,02,26,14,20,6.30
2018,02,26,14,21,6.20
2018,02,26,14,22,6.20
2018,02,26,14,23,6.10
2018,02,26,14,24,6.00
2018,02,26,14,25,5.80
2018,02,26,14,26,5.70
2018,02,26,14,27,5.70
2018,02,26,14,28,5.50
2018,02,26,14,29,5.40
2018,02,26,14,30,5.40
2018,02,26,14,31,5.40
2018,02,26,14,32,5.40
2018,02,26,14,33,5.40
2018,02,26,14,34,5.30
2018,02,26,14,35,5.30
2018,02,26,14,36,5.30
2018,02,26,14,37,5.40
2018,02,26,14,38,5.40
2018,02,26,14,39,5.40
2018,02,26,14,40,5.50
2018,02,26,14,41,5.50
2018,02,26,14,42,5.40
2018,02,26,14,43,5.40
2018,02,26,14,44,5.30
2018,02,26,14,45,5.30
2018,02,26,14,46,5.30
2018,02,26,14,47,5.30
2018,02,26,14,48,5.30
2018,02,26,14,49,5.30
2018,02,26,14,50,5.30
2018,02,26,14,51,5.30
2018,02,26,14,52,5.30
2018,02,26,14,53,5.30
2018,02,26,14,54,5.30
2018,02,26,14,55,5.30
2018,02,26,14,56,5.30
2018,02,26,14,57,5.30
2018,02,26,14,58,5.30
2018,02,26,14,59,5.30
2018,02,26,15,00,5.40
2018,02,26,15,01,5.40
2018,02,26,15,02,5.40
2018,02,26,15,03,5.40
2018,02,26,15,04,5.40
2018,02,26,15,05,5.40
2018,02,26,15,06,5.40
2018,02,26,15,07,5.40
2018,02,26,15,08,5.40
2018,02,26,15,09,5.40
2018,02,26,15,10,5.40
2018,02,26,15,11,5.40
2018,02,26,15,12,5.40
2018,02,26,15,13,5.30
2018,02,26,15,14,5.30
2018,02,26,15,15,5.30
2018,02,26,15,16,5.30
2018,02,26,15,17,5.30
2018,02,26,15,18,5.40
2018,02,26,15,19,5.50
2018,02,26,15,20,5.60
2018,02,26,15,21,5.60
2018,02,26,15,22,5.70
2018,02,26,15,23,5.70
2018,02,26,15,24,5.60
2018,02,26,15,25,5.60
2018,02,26,15,26,5.60
2018,02,26,15,27,5.60
2018,02,26,15,28,5.60
2018,02,26,15,29,5.60
2018,02,26,15,30,5.60
2018,02,26,15,31,5.60
2018,02,26,15,32,5.60
2018,02,26,15,33,5.60
2018,02,26,15,34,5.60
2018,02,26,15,35,5.70
2018,02,26,15,36,5.70
2018,02,26,15,37,5.70
2018,02,26,15,38,5.70
2018,02,26,15,39,5.70
2018,02,26,15,40,5.70
2018,02,26,15,41,5.70
2018,02,26,15,42,5.70
2018,02,26,15,43,5.70
2018,02,26,15,44,5.70
2018,02,26,15,45,5.80
2018,02,26,15,46,5.90
2018,02,26,15,47,6.00
2018,02,26,15,48,6.00
2018,02,26,15,49,6.10
2018,02,26,15,50,6.20
2018,02,26,15,51,6.20
2018,02,26,15,52,6.30
2018,02,26,15,53,6.40
2018,02,26,15,54,6.50
2018,02,26,15,55,6.60
2018,02,26,15,56,6.60
2018,02,26,15,57,6.60
2018,02,26,15,58,6.70
2018,02,26,15,59,6.70
2018,02,26,16,00,6.80
2018,02,26,16,01,6.80
2018,02,26,16,02,6.80
2018,02,26,16,03,6.80
2018,02,26,16,04,6.90
2018,02,26,16,05,6.80
2018,02,26,16,06,6.80
2018,02,26,16,07,6.80
2018,02,26,16,08,6.80
2018,02,26,16,09,6.80
2018,02,26,16,10,6.70
2018,02,26,16,11,6.70
2018,02,26,16,12,6.60
2018,02,26,16,13,6.60
2018,02,26,16,14,6.60
2018,02,26,16,15,6.60
2018,02,26,16,16,6.60
2018,02,26,16,17,6.60
2018,02,26,16,18,6.50
2018,02,26,16,19,6.50
2018,02,26,16,20,6.50
2018,02,26,16,21,6.50
2018,02,26,16,22,6.50
2018,02,26,16,23,6.60
2018,02,26,16,24,6.60
2018,02,26,16,25,6.70
2018,02,26,16,26,6.70
2018,02,26,16,27,6.70
2018,02,26,16,28,6.70
2018,02,26,16,29,6.70
2018,02,26,16,30,6.70
2018,02,26,16,31,6.70
2018,02,26,16,32,6.70
2018,02,26,16,33,6.60
2018,02,26,16,34,6.50
2018,02,26,16,35,6.50
2018,02,26,16,36,6.50
2018,02,26,16,37,6.50
2018,02,26,16,38,6.50
2018,02,26,16,39,6.60
2018,02,26,16,40,6.60
2018,02,26,16,41,6.50
2018,02,26,16,42,6.40
2018,02,26,16,43,6.40
2018,02,26,16,44,6.30
2018,02,26,16,45,6.20
2018,02,26,16,46,6.20
2018,02,26,16,47,6.10
2018,02,26,16,48,6.00
2018,02,26,16,49,6.00
2018,02,26,16,50,5.90
2018,02,26,16,51,5.90
2018,02,26,16,52,5.90
2018,02,26,16,53,5.80
2018,02,26,16,54,5.80
2018,02,26,16,55,5.70
2018,02,26,16,56,5.70
2018,02,26,16,57,5.60
2018,02,26,16,58,5.60
2018,02,26,16,59,5.50
2018,02,26,17,00,5.50
2018,02,26,17,01,5.40
2018,02,26,17,02,5.40
2018,02,26,17,03,5.40
2018,02,26,17,04,5.40
2018,02,26,17,05,5.30
2018,02,26,17,06,5.30
2018,02,26,17,07,5.30
2018,02,26,17,08,5.30
2018,02,26,17,09,5.20
2018,02,26,17,10,5.20
2018,02,26,17,11,5.20
2018,02,26,17,12,5.20
2018,02,26,17,13,5.10
2018,02,26,17,14,5.10
2018,02,26,17,15,5.10
2018,02,26,17,16,5.10
2018,02,26,17,17,5.00
2018,02,26,17,18,5.00
2018,02,26,17,19,5.00
2018,02,26,17,20,4.90
2018,02,26,17,21,4.90
2018,02,26,17,22,4.90
2018,02,26,17,23,4.90
2018,02,26,17,24,4.80
2018,02,26,17,25,4.80
2018,02,26,17,26,4.80
2018,02,26,17,27,4.80
2018,02,26,17,28,4.70
2018,02,26,17,29,4.70
2018,02,26,17,30,4.70
2018,02,26,17,31,4.60
2018,02,26,17,32,4.60
2018,02,26,17,33,4.60
2018,02,26,17,34,4.50
2018,02,26,17,35,4.50
2018,02,26,17,36,4.40
2018,02,26,17,37,4.40
2018,02,26,17,38,4.40
2018,02,26,17,39,4.40
2018,02,26,17,40,4.40
2018,02,26,17,41,4.40
2018,02,26,17,42,4.40
2018,02,26,17,43,4.40
2018,02,26,17,44,4.40
2018,02,26,17,45,4.30
2018,02,26,17,46,4.30
2018,02,26,17,47,4.30
2018,02,26,17,48,4.30
2018,02,26,17,49,4.30
2018,02,26,17,50,4.30
2018,02,26,17,51,4.20
2018,02,26,17,52,4.20
2018,02,26,17,53,4.10
2018,02,26,17,54,4.00
2018,02,26,17,55,4.00
2018,02,26,17,56,3.90
2018,02,26,17,57,3.90
2018,02,26,17,58,3.90
2018,02,26,17,59,3.80
2018,02,26,18,00,3.80
2018,02,26,18,01,3.80
2018,02,26,18,02,3.80
2018,02,26,18,03,3.80
2018,02,26,18,04,3.80
2018,02,26,18,05,3.70
2018,02,26,18,06,3.70